Starlink 31089

operational
NORAD ID: 58610 Int'l Des: 2023-200 Owner: SPXS Country: US Constellation: starlink
LEOCIRCULAR

关于 Starlink 31089

正在加载描述...

实时位置

正在加载3D地球...

即将过境

高度历史

Altitude vs Time

uPlot chart will show altitude changes over time

两行轨道根数

1 58610U 23200X 26095.46491944 -.00001596 00000-0 -49828-4 0 9998
2 58610 43.0019 17.7603 0001321 287.1294 72.9413 15.26731975127702
Epoch: Apr 5, 2026 • Age: 7 hours

当前状态

高度 498.1 km
速度 7.62 km/s
星下点 -43.11°S, 169.38°E
发射日期 Dec 19, 2023
运行时间 2.2 years
类型 internet

技术详情

分类 Payload
质量 730.00 kg
干质量 700.00 kg
总质量 730.00 kg
长度 0.30 m
直径 4.10 m
跨度 29.00 m
形状 Box + pan
制造商 SPXS
平台类型 Starlink V2M
阶段状态 In Orbit
所有者/国家 SPXS/US

大型星座

Loading constellations...